This is the latest recevied weather packets stored in our database for station/object W0JRT-6. If no packets are shown the sender has not sent any weather packets the latest 10 day(s).
| Time | Temp. | Humidity | Pressure | Rain* | Wind** | Luminosity | Snow |
|---|---|---|---|---|---|---|---|
| 1777894806 | 13.89° C | 77% | 1001.1 hPa | 0 mm | - | - | - |
| 1777894198 | 13.89° C | 76% | 1001.1 hPa | 0 mm | - | - | - |
| 1777893607 | 13.33° C | 77% | 1001 hPa | 0 mm | - | - | - |
| 1777893011 | 12.78° C | 81% | 1001.1 hPa | 0 mm | - | - | - |
| 1777892402 | 12.22° C | 85% | 1001.2 hPa | 0 mm | - | - | - |
| 1777891809 | 12.22° C | 87% | 1001.3 hPa | 0 mm | - | - | - |
| 1777891198 | 12.22° C | 84% | 1001.4 hPa | 0 mm | - | - | - |
| 1777890607 | 12.78° C | 84% | 1001.6 hPa | 0 mm | - | - | - |
| 1777889999 | 12.78° C | 81% | 1001.6 hPa | 0 mm | - | - | - |
| 1777889398 | 13.33° C | 79% | 1001.6 hPa | 0 mm | - | - | - |
| 1777888798 | 13.33° C | 77% | 1001.6 hPa | 0 mm | - | - | - |
| 1777888198 | 13.89° C | 78% | 1001.5 hPa | 0 mm | - | - | - |
| 1777887603 | 14.44° C | 72% | 1001.7 hPa | 0 mm | - | - | - |
| 1777887009 | 15° C | 70% | 1001.7 hPa | 0 mm | - | - | - |
| 1777886406 | 15.56° C | 66% | 1001.4 hPa | 0 mm | - | - | - |
| 1777885808 | 15.56° C | 65% | 1001.3 hPa | 0 mm | - | - | - |
| 1777885198 | 16.67° C | 62% | 1001.3 hPa | 0 mm | - | - | - |
| 1777884598 | 17.22° C | 58% | 1001.4 hPa | 0 mm | - | - | - |
| 1777883998 | 18.33° C | 55% | 1001.3 hPa | 0 mm | - | - | - |
| 1777883405 | 18.33° C | 54% | 1001.3 hPa | 0 mm | - | - | - |
| 1777882805 | 18.33° C | 54% | 1001.2 hPa | 0 mm | - | - | - |
| 1777882213 | 18.89° C | 53% | 1001.4 hPa | 0 mm | - | - | - |
| 1777881604 | 18.89° C | 52% | 1001.5 hPa | 0 mm | - | - | - |
| 1777881001 | 18.89° C | 52% | 1001.5 hPa | 0 mm | - | - | - |
| 1777879799 | 18.89° C | 52% | 1001.7 hPa | 0 mm | - | - | - |
* Rain since midnight (hover to see other rain measurements)
** Current wind speed in m/s (hover to see current wind gust speed)